User: anonymous   Login
Location: Brede
(50.9167°N, 0.6000°E)
Time: 12:09:19
(UTC+00:00)
Language:

Cosmos 1536 - Orbit

View from above orbital plane
View from above orbital plane
View from above satellite
View from above satellite

Ground track
Ground track

The orbit data is extracted from the following two-line orbital elements,

1 14699U 84013A   20296.89728231 +.00000304 +00000-0 +18990-4 0  9992
2 14699 082.5286 224.2042 0012249 193.9175 166.1716 15.05653489976030
Epoch (UTC): 22 October 2020 21:32:05
Eccentricity: 0.0012249
inclination: 82.5286°
perigee height: 541 km
apogee height: 558 km
right ascension of ascending node: 224.2042°
argument of perigee: 193.9175°
revolutions per day: 15.05653489
mean anomaly at epoch: 166.1716°
orbit number at epoch: 97603

The dashed part of the orbit path shows where the satellite is in the earth's shadow,  

DLR